This demonstration page uses our WeatherBlox Daily Observations layout. Learn more.

39.29038, -76.61219

Hourly Observations for December 4, 2017

Temp ( °F °C ) Dew Point ( °F °C ) Humidity (%) Winds ( mph kmh ) Pressure ( in mb ) Visibility ( mi km ) Precip ( " mm )
12:54 am 00:54 undefined 42 5.6 34 1.1 73 73 undefined N/A 30.3 1026 N/A 0 0
1:54 am 01:54 undefined 41 5 34 1.1 76 76 undefined N/A 30.3 1026 N/A 0 0
2:54 am 02:54 undefined 40 4.4 34 1.1 79 79 undefined N/A 30.33 1027 N/A 0 0
3:54 am 03:54 undefined 39 3.9 33 0.6 79 79 undefined N/A 30.33 1027 N/A 0 0
4:54 am 04:54 undefined 39 3.9 33 0.6 79 79 undefined N/A 30.33 1027 N/A 0 0
5:54 am 05:54 undefined 39 3.9 33 0.6 79 79 undefined N/A 30.36 1028 N/A 0 0
6:54 am 06:54 undefined 39 3.9 33 0.6 79 79 undefined N/A 30.39 1029 N/A 0 0
7:54 am 07:54 undefined 40 4.4 33 0.6 77 77 undefined N/A 30.39 1029 N/A 0 0
8:54 am 08:54 undefined 43 6.1 34 1.1 71 71 undefined N/A 30.42 1030 N/A 0 0
9:54 am 09:54 undefined 46 7.8 35 1.7 66 66 undefined N/A 30.42 1030 N/A 0 0
10:54 am 10:54 undefined 49 9.4 39 3.9 69 69 undefined N/A 30.42 1030 N/A 0 0
11:54 am 11:54 undefined 50 10 40 4.4 68 68 undefined N/A 30.42 1030 N/A 0 0
12:54 pm 12:54 undefined 51 10.6 38 3.3 61 61 undefined N/A 30.39 1029 N/A 0 0
1:54 pm 13:54 undefined 52 11.1 39 3.9 61 61 undefined N/A 30.36 1028 N/A 0 0
2:54 pm 14:54 undefined 51 10.6 38 3.3 61 61 undefined N/A 30.36 1028 N/A 0 0
3:54 pm 15:54 undefined 50 10 39 3.9 66 66 undefined N/A 30.36 1028 N/A 0 0
4:54 pm 16:54 undefined 49 9.4 41 5 74 74 undefined N/A 30.36 1028 N/A 0 0
5:54 pm 17:54 undefined 48 8.9 41 5 77 77 undefined N/A 30.36 1028 N/A 0 0
6:54 pm 18:54 undefined 48 8.9 42 5.6 80 80 undefined N/A 30.36 1028 N/A 0 0
7:54 pm 19:54 undefined 47 8.3 42 5.6 83 83 undefined N/A 30.36 1028 N/A 0 0
8:54 pm 20:54 undefined 48 8.9 43 6.1 83 83 undefined N/A 30.36 1028 N/A 0 0
9:54 pm 21:54 undefined 47 8.3 42 5.6 83 83 undefined N/A 30.33 1027 N/A 0 0
10:54 pm 22:54 undefined 48 8.9 43 6.1 83 83 undefined N/A 30.33 1027 N/A 0 0
11:54 pm 23:54 undefined 48 8.9 44 6.7 86 86 undefined N/A 30.3 1026 N/A 0 0

Powered by AerisWeather